Regional Weather Roundup
Issued by NWS

Home | Current Version | Previous Version | Graphics & Text | Print | Product List | Glossary On
Versions: 1 2 3 4 5 6 7 8 9 10 11 12 13 14 15 16 17 18 19 20 21 22 23 24 25 26 27 28 29 30 31 32 33 34 35 36 37 38 39 40 41 42 43 44 45 46 47 48 49 50
000
ASUS43 KMPX 200801
RWRMN
WEATHER ROUNDUP FOR MINNESOTA
NATIONAL WEATHER SERVICE TWIN CITIES/CHANHASSEN MN
300 AM CDT WED SEP 20 2017


NOTE: "FAIR" INDICATES FEW OR NO CLOUDS BELOW 12,000 FEET WITH NO
SIGNIFICANT WEATHER AND/OR OBSTRUCTIONS TO VISIBILITY. N/A MEANS
CURRENT SKY AND/OR WEATHER CONDITIONS ARE NOT AVAILABLE.

MNZ060>063-068>070-200900-
   Twin Cities Metro

CITY           SKY/WX    TMP DP  RH WIND       PRES   REMARKS
TWIN CITIES    CLOUDY    73  66  78 S10G23    29.62S THUNDER
ST PAUL        CLOUDY    71  65  81 SE16G24   29.61F
CRYSTAL        TSTM      69  64  84 S10G20    29.62R
BLAINE         CLOUDY    72  64  78 S13G24    29.60R
LAKEVILLE      CLOUDY    72  64  78 S13G25    29.60F THUNDER
EDEN PRAIRIE   TSTM      70  67  90 S16       29.60R FOG
SOUTH ST PAUL  CLOUDY    72  64  75 S13G23    29.61F
LAKE ELMO      FAIR      70  64  83 SE14G28   29.62F
$$
MNZ001>005-007-008-013>017-022>024-027-028-200900-
   Northwest Minnesota

CITY           SKY/WX    TMP DP  RH WIND       PRES   REMARKS
BEMIDJI        LGT RAIN  59  59  99 E7G17     29.44F
HALLOCK        CLOUDY    63  61  94 S7        29.39F
ROSEAU           N/A     63  57  82 S8        29.42F
WARROAD        LGT RAIN  61  57  88 SE9       29.44R
CROOKSTON      CLOUDY    63  63 100 S8        29.43F
FOSSTON        CLOUDY    57  57 100 SE3       29.48F
DETROIT LAKES  CLOUDY    61  61 100 CALM      29.51R FOG
MOORHEAD       CLOUDY    61  59  94 CALM      29.47S
PARK RAPIDS    CLOUDY    62  60  93 SE10      29.53R
MAHNOMEN       CLOUDY    59  59  99 S6        29.49R
$$
MNZ006-009>011-018-025>026-200900-
   North Central Minnesota

CITY           SKY/WX    TMP DP  RH WIND       PRES   REMARKS
BAUDETTE       LGT RAIN  61  61 100 E15       29.44F
FLAG ISLAND    CLOUDY    61  59  94 SE17      29.40F
INTL FALLS     RAIN      61  60  97 SE8       29.58F
WASKISH        LGT RAIN  61  61 100 E9        29.47F
BIG FORK       TSTM      61  61 100 CALM      29.64R
LONGVILLE      LGT RAIN  61  61 100 SE5       29.50F
GRAND RAPIDS   RAIN      64  61  90 SE7G21    29.61R
CRANE LAKE     TSTM      61  59  94 CALM      29.58F
ORR            LGT RAIN  63  57  82 S13G22    29.56R
COOK           LGT RAIN  66  57  72 SE14G26   29.59S
WALKER         PTSUNNY   59  59  99 S8        29.50F
$$
MNZ012-019>021-037-200900-
   Northeast Minnesota

CITY           SKY/WX    TMP DP  RH WIND       PRES   REMARKS
DULUTH         CLOUDY    63  60  90 SE21      29.61F
ELY            CLOUDY    63  55  77 SE17G30   29.64F
HIBBING        TSTM      62  59  90 S8G22     29.67R FOG
EVELETH        CLOUDY    64  59  85 SE14G25   29.60F
DULUTH HARBOR  CLOUDY    70  63  78 SE12G20   29.63F
TWO HARBORS    CLOUDY    64  61  88 E13       29.65F
$$
MNZ029>031-032-039>041-046>048-054>057-064-200900-
   West Central Minnesota

CITY           SKY/WX    TMP DP  RH WIND       PRES   REMARKS
FERGUS FALLS   MOCLDY    61  61 100 CALM      29.50R
WHEATON        CLOUDY    61  59  94 S3        29.54F
MORRIS         PTCLDY    63  61  94 S3        29.54F
ALEXANDRIA     CLOUDY    61  60  97 S9        29.58R
ELBOW LAKE     CLOUDY    62  62  99 CALM      29.54S
WADENA         CLOUDY    63  63 100 S13       29.55R
GLENWOOD       CLOUDY    59  59 100 SW5       29.58R
APPLETON       PTCLDY    63  61  94 CALM      29.56S
BENSON           N/A     61  57  88 S7        29.59R
ORTONVILLE     PTCLDY    61  57  88 N3        29.54F
MADISON        MOCLDY    64  63  94 CALM      29.57F
WILLMAR        FAIR      63  63 100 SW5       29.59S
$$
MNZ033>034-036-042>043-049>051-058-059-200900-
   Central Minnesota

CITY           SKY/WX    TMP DP  RH WIND       PRES   REMARKS
ST CLOUD       LGT RAIN  63  63 100 SE7       29.58F
SAUK CENTRE    TSTM      59  58  97 CALM      29.59S
PAYNESVILLE    LGT RAIN  62  62  98 S5        29.60R
AITKIN         TSTM      63  61  94 SE21G26   29.57F
PINE RIVER     CLOUDY    57  55  94 SW3       29.59F
BRAINERD       LGT RAIN  63  61  93 SW15      29.59R
STAPLES        CLOUDY    61  61 100 S12       29.57R
LONG PRAIRIE   CLOUDY    59  57  94 SE5       29.58F THUNDER
LITTLE FALLS   CLOUDY    59  57  94 SW3       29.57R
LITCHFIELD     CLOUDY    64  64 100 SW5       29.60R
BUFFALO        CLOUDY    67  63  86 E5        29.60F
MAPLE LAKE     CLOUDY    66  64  96 CALM      29.58F
HUTCHINSON     CLOUDY    67  66  97 SW5       29.60F
$$
MNZ037-044-045-052-053-200900-
   East Central Minnesota

CITY           SKY/WX    TMP DP  RH WIND       PRES   REMARKS
PRINCETON      CLOUDY    64  63  94 SE3       29.60R
MORA           TSTM      57  55  94 W12G21    29.68R
RUSH CITY      CLOUDY    70  62  75 S20G29    29.59S
MOOSE LAKE     TSTM      63  57  82 SW16G33   29.66R
HINCKLEY       CLOUDY    70  63  78 W25G46    29.68R
CLOQUET        CLOUDY    66  57  72 SE10G21   29.57F THUNDER
MCGREGOR       CLOUDY    61  59  94 SE13      29.63R THUNDER
$$
MNZ071>073-080-081-089-090-097-098-200900-
   Southwest Minnesota

CITY           SKY/WX    TMP DP  RH WIND       PRES   REMARKS
MONTEVIDEO     MOCLDY    63  59  88 CALM      29.59S
GRANITE FALLS  CLOUDY    65  63  94 SW5       29.60F
CANBY          CLOUDY    62  57  85 SW3       29.60F
MARSHALL       CLOUDY    63  59  87 W7        29.62R
REDWOOD FALLS  CLOUDY    64  61  90 SW6       29.59F
OLIVIA         CLOUDY    63  59  88 CALM      29.58F
PIPESTONE      CLOUDY    63  55  77 CALM      29.64F
WORTHINGTON    CLOUDY    61  58  90 W3        29.67S
JACKSON        CLOUDY    63  61  94 CALM      29.67S
TRACY          CLOUDY    64  60  85 SW3       29.64R
SLAYTON        CLOUDY    62  57  82 NW7       29.66S
$$
MNZ065>067-074>077-082>085-091>093-200900-
   South Central Minnesota

CITY           SKY/WX    TMP DP  RH WIND       PRES   REMARKS
MANKATO        CLOUDY    72  66  81 S15G24    29.61R
NEW ULM        CLOUDY    66  63  88 W6        29.60F
ST JAMES       CLOUDY    66  63  88 W5        29.63S
FAIRMONT       CLOUDY    70  65  84 W5        29.64S
GLENCOE        CLOUDY    71  69  92 S6        29.58F
FARIBAULT      CLOUDY    72  64  78 S18G26    29.60F
OWATONNA       CLOUDY    72  64  78 S21G32    29.61F THUNDER
WASECA         CLOUDY    72  64  78 S16G24    29.63R THUNDER
ALBERT LEA     PTCLDY    73  66  78 S22G29    29.63F
$$
MNZ078>079-086>088-094>096-200900-
   Southeast Minnesota

CITY           SKY/WX    TMP DP  RH WIND       PRES   REMARKS
ROCHESTER      CLOUDY    69  64  84 S22G30    29.70F
RED WING       CLOUDY    72  61  68 SE18      29.63F
STANTON        CLOUDY    73  64  75 SE24G39   29.56F
DODGE CENTER   CLOUDY    70  63  78 SE23G29   29.66F
WINONA         CLOUDY    70  61  73 SE13      29.73F
AUSTIN         CLOUDY    70  63  78 S13G21    29.68F
PRESTON        CLOUDY    67  62  84 SE16G25   29.75F
$$
ABBREVIATIONS USED IN REMARKS
   TC - TEMPERATURES IN CELSIUS
  WCI - WIND CHILL INDEX
   HX - HEAT INDEX
  VSB - VISIBILITY
$$




USA.gov is the U.S. government's official web portal to all federal, state and local government web resources and services.